TimeCST,TemperatureF,Dew PointF,Humidity,Sea Level PressureIn,VisibilityMPH,Wind Direction,Wind SpeedMPH,Gust SpeedMPH,PrecipitationIn,Events,Conditions,WindDirDegrees,DateUTC
12:53 AM,19.9,16.0,85,30.25,7.0,Calm,Calm,-,N/A,,Clear,0,2013-01-02 06:53:00
1:53 AM,19.9,15.1,81,30.26,7.0,North,3.5,-,N/A,,Clear,350,2013-01-02 07:53:00
2:53 AM,18.0,14.0,84,30.27,6.0,NW,3.5,-,N/A,,Clear,310,2013-01-02 08:53:00
3:53 AM,17.1,12.9,84,30.27,6.0,NW,3.5,-,0.01,,Clear,320,2013-01-02 09:53:00
4:53 AM,17.1,12.9,84,30.27,6.0,Calm,Calm,-,N/A,,Clear,0,2013-01-02 10:53:00
5:53 AM,16.0,12.0,84,30.27,6.0,Calm,Calm,-,N/A,,Clear,0,2013-01-02 11:53:00
6:53 AM,15.1,10.9,84,30.28,6.0,WNW,4.6,-,N/A,,Clear,290,2013-01-02 12:53:00
7:53 AM,17.1,12.9,84,30.29,5.0,Calm,Calm,-,N/A,,Clear,0,2013-01-02 13:53:00
8:53 AM,19.9,15.1,81,30.29,6.0,SW,3.5,-,N/A,,Haze,220,2013-01-02 14:53:00
9:53 AM,21.9,17.1,82,30.29,7.0,Calm,Calm,-,N/A,,Clear,0,2013-01-02 15:53:00
10:53 AM,24.1,18.0,77,30.29,8.0,SW,3.5,-,N/A,,Clear,230,2013-01-02 16:53:00
11:53 AM,26.1,15.1,63,30.27,10.0,Variable,4.6,-,N/A,,Clear,0,2013-01-02 17:53:00
12:53 PM,30.0,15.1,54,30.23,10.0,Calm,Calm,-,N/A,,Clear,0,2013-01-02 18:53:00
1:53 PM,30.9,14.0,50,30.22,10.0,Calm,Calm,-,N/A,,Clear,0,2013-01-02 19:53:00
2:53 PM,34.0,15.1,46,30.22,10.0,West,3.5,-,N/A,,Clear,260,2013-01-02 20:53:00
3:53 PM,34.0,12.9,42,30.22,10.0,SSW,3.5,-,N/A,,Clear,200,2013-01-02 21:53:00
4:53 PM,30.9,17.1,57,30.22,10.0,SSW,3.5,-,N/A,,Clear,200,2013-01-02 22:53:00
5:53 PM,28.9,17.1,61,30.24,10.0,SSW,3.5,-,N/A,,Clear,210,2013-01-02 23:53:00
6:53 PM,27.0,16.0,63,30.26,10.0,Calm,Calm,-,N/A,,Clear,0,2013-01-03 00:53:00
7:53 PM,25.0,16.0,69,30.27,10.0,SW,3.5,-,N/A,,Clear,220,2013-01-03 01:53:00
8:53 PM,23.0,16.0,74,30.27,10.0,SW,3.5,-,N/A,,Clear,230,2013-01-03 02:53:00
9:53 PM,21.9,16.0,78,30.28,9.0,WSW,3.5,-,N/A,,Clear,240,2013-01-03 03:53:00
10:53 PM,24.1,17.1,75,30.28,10.0,West,5.8,-,N/A,,Clear,270,2013-01-03 04:53:00
11:53 PM,23.0,17.1,78,30.27,10.0,West,3.5,-,N/A,,Clear,280,2013-01-03 05:53:00